Weather History for Boonville, MO

Change the Weather History Date:

Tuesday, January 1, 2013

  Actual Average Record
Temperature  
Mean Temperature 17 °F -  
Max Temperature 25 °F 34 °F 72 °F (1952)
Min Temperature 8 °F 18 °F -14 °F (1974)
Degree Days  
Heating Degree Days 48    
Moisture  
Dew Point 12 °F    
Average Humidity 77    
Maximum Humidity 94    
Minimum Humidity 60    
Precipitation  
Precipitation 0.00 in - - ()
Sea Level Pressure  
Sea Level Pressure 30.24 in    
Wind  
Wind Speed 6 mph (North)    
Max Wind Speed 12 mph    
Max Gust Speed 16 mph    
Visibility 10 miles    
Events      
Averages and records for this station are not official NWS values.
T = Trace of Precipitation, MM = Missing Value Source: NWS Daily Summary

Daily Weather History Graph

Daily Weather History Graph

Search for Another Location

Airport:

Trip Planner

Search our weather history database for the weather conditions in past years. The results will help you decide how hot, cold, wet, or windy it might be!

Date:

Astronomy

Jan. 01, 2013 Rise Set
Actual Time 7:29 AM CST 4:59 PM CST
Civil Twilight 6:59 AM CST 5:29 PM CST
Nautical Twilight 6:26 AM CST 6:02 PM CST
Astronomical Twilight 5:53 AM CST 6:35 PM CST
Moon 9:28 PM CST (1/1) 9:44 AM CST (1/1)
Length of Visible Light 10h 29m
Length of Day
9h 30m
Waning Gibbous, 83% of the Moon is Illuminated
Jan 1
Waning Gibbous
Jan 4
Last Quarter
Jan 11
New
Jan 18
First Quarter
Jan 26
Full

Hourly Weather History & Observations

Time (CST) Temp. Windchill Dew Point Humidity Pressure Visibility Wind Dir Wind Speed Gust Speed Precip Events Conditions
12:15 AM 25.0 °F 14.2 °F 21.2 °F 86% 30.15 in 10.0 mi North 11.5 mph 16.1 mph N/A   Overcast
12:35 AM 23.9 °F 13.5 °F 18.0 °F 78% 30.16 in 10.0 mi North 10.4 mph - N/A   Overcast
12:55 AM 23.5 °F 13.7 °F 17.4 °F 77% 30.16 in 10.0 mi North 9.2 mph - N/A   Overcast
1:15 AM 23.4 °F 14.3 °F 17.4 °F 78% 30.16 in 10.0 mi North 8.1 mph - N/A   Overcast
1:35 AM 23.4 °F 14.3 °F 17.8 °F 79% 30.16 in 10.0 mi North 8.1 mph - N/A   Overcast
1:55 AM 23.0 °F 14.7 °F 17.6 °F 80% 30.17 in 10.0 mi NNE 6.9 mph - N/A   Overcast
2:15 AM 23.0 °F 13.1 °F 17.6 °F 80% 30.16 in 10.0 mi North 9.2 mph - N/A   Overcast
2:35 AM 23.0 °F 17.0 °F 18.1 °F 82% 30.18 in 10.0 mi North 4.6 mph - N/A   Overcast
3:15 AM 22.8 °F 13.6 °F 17.8 °F 81% 30.18 in 10.0 mi North 8.1 mph - N/A   Overcast
3:35 AM 22.6 °F 13.4 °F 16.3 °F 77% 30.19 in 10.0 mi North 8.1 mph - N/A   Overcast
3:55 AM 22.3 °F - 16.0 °F 77% 30.19 in 10.0 mi Calm Calm - N/A   Overcast
4:15 AM 21.7 °F 12.3 °F 15.6 °F 77% 30.18 in 10.0 mi North 8.1 mph - N/A   Overcast
4:35 AM 21.0 °F 9.9 °F 14.9 °F 77% 30.17 in 10.0 mi North 10.4 mph - N/A   Mostly Cloudy
4:55 AM 19.9 °F 12.1 °F 14.0 °F 78% 30.17 in 10.0 mi North 5.8 mph 9.2 mph N/A   Scattered Clouds
5:15 AM 19.2 °F 9.3 °F 14.2 °F 81% 30.17 in 10.0 mi North 8.1 mph - N/A   Clear
5:35 AM 18.7 °F 11.9 °F 14.0 °F 82% 30.17 in 10.0 mi North 4.6 mph - N/A   Clear
6:15 AM 17.6 °F 7.3 °F 14.0 °F 86% 30.16 in 10.0 mi North 8.1 mph - N/A   Clear
6:35 AM 18.0 °F - 14.0 °F 84% 30.24 in 10.0 mi Calm Calm - N/A   Clear
6:55 AM 17.6 °F - 13.5 °F 84% 30.25 in 10.0 mi Calm Calm - N/A   Clear
7:15 AM 16.5 °F - 12.9 °F 86% 30.26 in 10.0 mi Calm Calm - N/A   Clear
7:35 AM 15.3 °F 9.6 °F 12.7 °F 90% 30.25 in 10.0 mi North 3.5 mph - N/A   Clear
8:15 AM 14.9 °F - 11.8 °F 88% 30.27 in 10.0 mi Calm Calm - N/A   Clear
8:35 AM 15.4 °F 8.1 °F 11.5 °F 84% 30.28 in 10.0 mi North 4.6 mph - N/A   Clear
9:15 AM 17.4 °F 10.4 °F 11.3 °F 77% 30.28 in 10.0 mi North 4.6 mph - N/A   Clear
9:35 AM 18.3 °F 9.1 °F 11.3 °F 74% 30.26 in 10.0 mi North 6.9 mph - N/A   Clear
9:55 AM 18.9 °F 7.2 °F 11.3 °F 72% 30.27 in 10.0 mi North 10.4 mph - N/A   Clear
10:15 AM 19.4 °F 10.4 °F 11.7 °F 72% 30.28 in 10.0 mi North 6.9 mph - N/A   Clear
10:35 AM 19.9 °F 12.1 °F 11.8 °F 71% 30.30 in 10.0 mi North 5.8 mph - N/A   Clear
10:55 AM 20.3 °F 12.5 °F 11.7 °F 69% 30.29 in 10.0 mi North 5.8 mph - N/A   Clear
11:15 AM 20.8 °F 12.1 °F 12.0 °F 69% 30.28 in 10.0 mi North 6.9 mph - N/A   Clear
11:35 AM 21.6 °F 13.0 °F 12.2 °F 67% 30.27 in 10.0 mi North 6.9 mph - N/A   Clear
11:55 AM 21.9 °F 15.7 °F 12.0 °F 66% 30.26 in 10.0 mi North 4.6 mph - N/A   Scattered Clouds
12:15 PM 22.6 °F 16.5 °F 12.0 °F 64% 30.25 in 10.0 mi North 4.6 mph - N/A   Scattered Clouds
12:35 PM 23.7 °F 16.6 °F 12.4 °F 62% 30.25 in 10.0 mi North 5.8 mph - N/A   Mostly Cloudy
12:55 PM 24.4 °F 18.6 °F 12.4 °F 60% 30.25 in 10.0 mi NNW 4.6 mph - N/A   Overcast
1:15 PM 23.0 °F 15.8 °F 12.6 °F 64% 30.24 in 10.0 mi NW 5.8 mph - N/A   Overcast
1:35 PM 22.6 °F 15.3 °F 12.4 °F 65% 30.24 in 10.0 mi NW 5.8 mph - N/A   Overcast
1:55 PM 23.0 °F 17.0 °F 12.4 °F 64% 30.25 in 10.0 mi NW 4.6 mph - N/A   Overcast
2:15 PM 22.6 °F 16.5 °F 12.6 °F 65% 30.25 in 10.0 mi NW 4.6 mph - N/A   Overcast
2:35 PM 22.6 °F 16.5 °F 12.4 °F 65% 30.25 in 10.0 mi WNW 4.6 mph - N/A   Overcast
3:15 PM 22.6 °F 14.3 °F 12.0 °F 64% 30.26 in 10.0 mi NW 6.9 mph - N/A   Overcast
3:35 PM 22.3 °F 13.9 °F 12.2 °F 65% 30.26 in 10.0 mi NW 6.9 mph - N/A   Overcast
3:55 PM 22.1 °F 15.9 °F 12.2 °F 66% 30.26 in 10.0 mi NW 4.6 mph - N/A   Overcast
4:15 PM 21.7 °F 15.5 °F 12.4 °F 67% 30.25 in 10.0 mi NW 4.6 mph - N/A   Overcast
4:35 PM 21.2 °F 14.9 °F 12.0 °F 68% 30.26 in 10.0 mi NW 4.6 mph - N/A   Overcast
4:55 PM 20.7 °F 14.2 °F 11.5 °F 68% 30.26 in 10.0 mi NW 4.6 mph - N/A   Scattered Clouds
5:15 PM 19.6 °F 14.5 °F 10.0 °F 66% 30.27 in 10.0 mi NNW 3.5 mph - N/A   Clear
5:35 PM 18.5 °F 13.3 °F 9.1 °F 67% 30.26 in 10.0 mi NNW 3.5 mph - N/A   Clear
5:55 PM 18.0 °F - 9.1 °F 68% 30.27 in 10.0 mi Calm Calm - N/A   Clear
6:15 PM 16.9 °F - 9.1 °F 72% 30.25 in 10.0 mi Calm Calm - N/A   Clear
6:35 PM 17.1 °F - 9.3 °F 72% 30.26 in 10.0 mi Calm Calm - N/A   Clear
6:55 PM 16.9 °F - 9.5 °F 73% 30.25 in 10.0 mi Calm Calm - N/A   Clear
7:15 PM 14.9 °F - 9.1 °F 78% 30.26 in 10.0 mi Calm Calm - N/A   Clear
7:35 PM 14.9 °F - 10.0 °F 81% 30.27 in 10.0 mi Calm Calm - N/A   Clear
7:55 PM 14.2 °F - 9.9 °F 83% 30.26 in 10.0 mi Calm Calm - N/A   Clear
8:15 PM 14.5 °F - 10.4 °F 84% 30.25 in 10.0 mi Calm Calm - N/A   Clear
8:35 PM 14.5 °F - 10.2 °F 83% 30.27 in 10.0 mi Calm Calm - N/A   Clear
8:55 PM 11.8 °F - 8.6 °F 87% 30.27 in 7.0 mi Calm Calm - N/A   Clear
9:15 PM 11.3 °F - 9.7 °F 93% 30.27 in 7.0 mi Calm Calm - N/A   Clear
9:35 PM 11.3 °F - 9.9 °F 94% 30.28 in 7.0 mi Calm Calm - N/A   Clear
9:55 PM 10.8 °F - 9.3 °F 94% 30.26 in 7.0 mi Calm Calm - N/A   Clear
10:15 PM 11.8 °F - 9.9 °F 92% 30.25 in 10.0 mi Calm Calm - N/A   Clear
10:35 PM 10.2 °F - 7.5 °F 89% 30.26 in 7.0 mi Calm Calm - N/A   Clear
10:55 PM 9.3 °F - 7.0 °F 90% 30.26 in 7.0 mi Calm Calm - N/A   Clear
11:15 PM 9.3 °F - 7.3 °F 92% 30.25 in 10.0 mi Calm Calm - N/A   Clear
11:35 PM 9.3 °F 2.8 °F 6.8 °F 89% 30.26 in 10.0 mi South 3.5 mph - N/A   Clear
11:55 PM 8.8 °F - 6.1 °F 89% 30.26 in 7.0 mi Calm Calm - N/A   Clear